Hourly Data Report for October 07, 2013

All times are specified in Local Standard Time (LST). Add 1 hour to adjust for Daylight Saving Time where and when it is observed.

QIKIQTARJUAQ A
NUNAVUT

67°32'48.000" N
64°01'54.000" W
5.50 m
2400577
YVM

Download Data

Hourly Data (October 2013)
Hourly Data Report for October 7, 2013
Temp Definition
°C
Dew Point Temp Definition
°C
Rel Hum Definition
%
Wind Dir Definition
10's deg

Wind Spd Definition
km/h
Visibility Definition
km
Stn Press Definition
kPa
Hmdx Definition


Wind Chill Definition


Weather Definition


TIME
00:00 Legend Double Dagger -8.0 -10.8 80 13 9 16.1 102.15   -13 LegendNANA
01:00 Legend Double Dagger -5.9 -8.8 80 19 9 16.1 102.16   -10 LegendNANA
02:00 Legend Double Dagger -4.8 -8.5 75 29 13 16.1 102.17   -10 LegendNANA
03:00 Legend Double Dagger -5.1 -9.0 74 27 13 16.1 102.19   -10 LegendNANA
04:00 Legend Double Dagger -6.3 -10.2 74 17 11 16.1 102.19   -11 LegendNANA
05:00 Legend Double Dagger -6.5 -10.6 73 18 21 16.1 102.18   -14 LegendNANA
06:00 Legend Double Dagger -6.2 -10.0 75 18 22 16.1 102.16   -13 LegendNANA
07:00 Legend Double Dagger -5.9 -10.2 72 20 22 16.1 102.12   -13 LegendNANA
08:00 Legend Double Dagger -5.5 -10.1 70 19 24 16.1 102.10   -13 LegendNANA
09:00 Legend Double Dagger -5.2 -10.4 67 18 26 16.1 102.10   -13 LegendNANA
10:00 Legend Double Dagger -4.3 -9.9 65 19 18 9.7 102.07   -10 LegendNANA
11:00 Legend Double Dagger -4.2 -9.3 68 18 21 16.1 102.04   -11 LegendNANA
12:00 Legend Double Dagger -4.4 -9.2 69 19 18 16.1 102.05   -10 LegendNANA
13:00 Legend Double Dagger -3.9 -9.0 68 19 15 16.1 102.04   -9 LegendNANA
14:00 Legend Double Dagger -4.7 -9.1 71 19 15 16.1 102.01   -10 LegendNANA
15:00 Legend Double Dagger -6.1 -10.2 73 19 8 14.5 102.00   -10 LegendNANA
16:00 Legend Double Dagger -6.7 -10.4 75 19 13 16.1 101.97   -12 LegendNANA
17:00 Legend Double Dagger -6.9 -10.7 75 19 13 16.1 101.96   -12 LegendNANA
18:00 Legend Double Dagger -7.3 -10.8 76 13 9 16.1 101.91   -12 LegendNANA
19:00 Legend Double Dagger -7.2 -10.7 76 14 9 16.1 101.89   -12 LegendNANA
20:00 Legend Double Dagger -7.2 -10.6 77 13 8 16.1 101.86   -11 LegendNANA
21:00 Legend Double Dagger -7.5 -10.9 77 20 11 16.1 101.81   -13 LegendNANA
22:00 Legend Double Dagger -6.3 -9.4 79 20 15 16.1 101.75   -12 LegendNANA
23:00 Legend Double Dagger -6.3 -9.7 77 20 13 16.1 101.71   -12 LegendNANA

Notes on Data Quality.

Legend

  • E = Estimated
  • M = Missing
  • NA = Not Available
  • ‡ = Partner data that is not subject to review by the National Climate Archives
Date modified: